Volver al catálogo

STARLINK-11142

ActivoComunicacionesVLEO
NORAD 59957·PAYLOAD·🇺🇸 United States

Lanzado Jun 5, 2024 desde Cape Canaveral Space Force Station

Loading…

Próximos Pases (próximas 24 horas)

TLE

ActualizadoSource: CelesTrak SupGP

Época: Sep 14, 2026, 20:58 UTC

1 59957C 24107N   26257.87409722  .00073804  00000+0  60768-3 0  2578
2 59957  53.1571  38.3407 0001079  66.3446 298.7420 15.69683345    13

Sigue STARLINK-11142 en tiempo real con AllMySat

Download on the App Store